Theta_e
314 316 314 314 313 314 314 315 316 316 315 313 313 312 313 313 312 313 313 313 314 313 313 313 312 311 311 310 310 310 310 309 307 304 301 299 296 293 291 289 287 286 286 285
316 317 315 316 314 314 315 315 316 315 315 312 313 313 312 312 312 312 312 313 312 312 312 311 310 310 310 310 310 308 308 305 302 299 297 294 292 289 287 287 286 285 285 284
314 315 316 315 315 314 315 314 313 314 313 311 312 312 312 312 312 312 311 311 312 312 312 311 310 310 310 308 306 304 302 300 298 295 293 290 288 287 286 285 285 284 284 283
311 314 312 314 313 314 314 314 312 313 312 313 313 313 312 313 313 312 311 310 310 310 310 308 307 306 305 303 301 300 299 297 294 292 289 288 287 286 285 284 284 283 283 282
312 313 313 315 316 314 313 313 313 313 311 312 312 311 311 312 313 312 311 310 309 309 307 306 304 303 302 300 299 298 297 294 291 289 287 286 285 285 284 283 283 282 282 282
308 312 314 313 314 316 314 315 313 314 311 310 311 311 307 312 312 311 310 309 307 305 304 303 301 300 300 299 297 296 294 291 289 287 286 285 285 284 283 283 282 282 281 281
308 313 313 312 314 314 315 314 314 314 312 311 312 312 312 312 311 311 310 307 306 304 303 301 300 299 298 297 295 293 291 288 287 286 286 285 284 283 283 282 282 282 281 281
309 309 315 315 313 315 314 315 315 314 313 311 312 312 312 311 310 309 308 305 304 302 301 300 298 297 297 296 294 292 289 287 286 285 285 284 283 283 282 282 282 282 281 281
312 311 313 315 315 315 315 316 315 315 313 312 312 311 310 310 309 308 307 304 302 302 300 297 296 296 297 296 293 289 287 286 285 285 284 283 283 282 282 282 282 281 281 281
314 313 313 317 318 317 316 316 316 316 315 312 312 311 309 308 308 306 305 303 302 300 299 297 295 295 294 294 291 288 286 285 285 284 283 283 282 282 281 282 281 281 281 281
313 313 314 316 316 316 317 315 315 315 315 313 312 310 310 308 306 305 304 302 300 299 298 297 295 294 294 291 288 286 285 285 284 283 283 282 282 281 281 281 281 281 281 280
312 312 313 315 316 317 316 316 315 315 312 312 312 312 309 307 306 305 303 300 299 298 298 296 295 294 292 289 287 285 285 284 283 282 282 282 281 281 281 281 281 281 280 280
311 310 311 313 314 315 314 314 315 315 314 313 310 310 309 307 305 303 301 300 299 298 297 296 295 293 291 288 286 285 284 283 282 282 281 281 281 281 281 280 280 280 280 279
307 308 311 313 312 313 314 313 311 313 313 312 311 308 307 306 304 303 302 300 299 297 296 295 294 292 290 287 285 284 283 283 282 281 281 280 280 280 280 280 280 279 279 278
306 307 310 312 312 313 314 314 311 311 311 309 308 308 307 306 304 303 301 300 298 296 295 294 293 291 289 286 285 284 283 282 281 281 280 280 280 280 279 279 279 279 278 278
306 312 310 310 313 313 312 312 312 309 310 309 308 307 306 305 304 302 300 299 297 296 295 294 292 290 287 285 284 283 282 282 281 280 280 279 279 279 279 279 279 278 278 277
310 312 312 313 311 313 311 312 312 313 310 310 308 307 305 304 303 301 299 297 296 296 294 293 292 288 285 284 283 282 282 281 280 280 279 279 279 278 278 278 278 277 277 277
307 306 306 308 310 313 312 310 311 312 310 310 308 306 304 304 302 300 298 297 295 293 292 291 289 286 284 283 283 282 281 280 280 279 279 278 278 278 277 277 277 276 276 276
304 305 304 306 307 311 310 310 309 309 308 308 307 305 303 302 301 300 298 296 294 293 291 290 288 285 283 283 282 281 280 280 279 279 278 278 277 277 277 276 275 276 276 275
308 309 310 309 309 309 309 311 310 308 308 306 305 304 302 301 300 299 297 295 295 294 292 290 287 284 283 282 281 280 280 280 279 278 277 277 277 276 276 275 275 275 275 275
305 305 307 310 311 310 309 311 310 309 308 306 307 305 303 300 299 297 295 294 292 291 290 287 285 283 282 281 281 280 279 279 278 277 277 276 276 275 275 274 274 274 274 273
304 304 305 306 310 311 311 311 310 309 308 305 303 303 302 299 297 294 295 295 293 290 288 285 284 282 281 280 280 279 279 278 277 277 276 276 275 274 274 274 274 274 273 273
303 304 305 306 308 311 310 310 309 307 307 306 304 302 301 300 297 296 294 291 292 291 286 285 283 282 281 280 280 279 278 277 277 276 276 275 274 274 274 274 274 273 273 272
303 303 304 307 309 309 309 307 307 304 303 303 301 300 302 299 296 295 293 293 290 287 286 284 282 281 280 280 279 278 277 277 276 276 275 275 274 274 274 273 273 273 272 272
302 302 302 303 303 304 306 306 304 302 300 298 298 298 298 297 303 296 292 291 287 288 284 282 281 280 280 279 278 277 277 276 276 275 275 274 274 274 273 273 273 272 272 271
301 299 299 299 299 300 302 302 301 300 298 297 296 297 296 299 298 292 288 291 289 285 282 281 280 280 279 279 278 277 277 276 275 275 274 274 274 273 273 273 272 272 272 271
298 297 297 297 297 297 297 297 297 297 297 298 298 295 296 297 291 292 292 288 285 282 281 280 280 279 279 278 278 277 277 276 275 274 274 274 273 273 273 272 272 272 271 271
Wind_Speed
6 6 6 7 6 8 7 6 7 6 9 9 15 14 23 24 21 21 19 18 18 20 21 22 26 30 31 29 26 23 20 16 11 6 3 4 7 10 13 16 16 15 14 14
5 5 7 5 7 8 5 3 4 3 6 5 13 17 21 27 25 23 22 21 22 24 26 29 30 30 27 25 22 17 13 9 5 3 3 6 10 13 14 13 12 12 12 13
4 2 2 4 8 7 5 5 7 6 10 7 5 20 30 32 29 26 26 27 27 27 27 28 27 25 23 20 16 12 9 7 3 2 5 8 11 12 11 11 11 11 12 12
3 3 3 7 4 7 11 8 10 3 6 17 20 31 25 32 32 29 29 29 29 28 27 26 24 21 18 15 13 10 7 3 2 4 7 9 9 9 9 9 10 12 13 14
4 4 4 3 4 6 8 10 10 9 6 11 20 20 16 30 31 30 30 29 28 27 26 25 22 19 17 15 12 9 5 3 3 6 7 7 7 7 8 10 12 13 13 12
3 5 8 8 5 4 4 5 8 15 17 24 26 7 6 33 32 31 29 29 30 29 26 24 22 17 14 12 9 6 3 2 5 6 6 6 6 6 7 10 13 12 10 10
2 4 6 7 7 7 6 7 11 24 30 32 13 10 22 37 33 29 30 32 31 28 26 23 20 17 14 10 7 4 2 4 5 5 5 5 5 5 7 10 10 10 8 9
3 2 6 6 3 6 6 6 11 21 28 30 17 14 29 40 37 36 35 35 33 31 27 23 20 17 13 10 7 4 5 5 5 4 4 4 3 4 7 8 9 10 8 9
7 6 6 5 7 5 6 7 13 20 25 35 25 26 38 41 39 38 37 37 33 30 27 24 19 14 11 9 7 6 6 6 5 4 3 3 3 5 7 7 8 9 10 11
4 4 8 14 11 10 10 12 11 18 27 34 31 31 38 40 41 42 40 38 35 30 26 24 20 15 11 9 7 7 7 7 5 5 4 3 4 7 7 7 8 9 11 13
3 5 12 12 7 13 15 17 15 18 26 33 32 34 38 42 43 43 41 38 34 30 26 23 20 15 11 9 8 7 7 7 6 6 5 5 6 7 6 8 9 10 11 14
3 6 7 8 15 11 17 20 19 21 28 31 33 34 39 42 44 43 42 39 35 30 25 23 19 15 12 10 8 8 8 8 7 7 7 7 6 6 7 8 9 11 13 14
4 20 18 13 10 9 24 26 22 24 28 35 34 36 40 43 43 42 40 37 33 29 25 22 19 16 13 10 8 8 8 8 8 8 9 8 7 6 7 8 10 12 13 12
28 21 11 10 11 17 13 20 23 28 31 33 35 37 39 40 41 41 39 35 31 28 25 22 19 16 12 10 9 9 9 8 8 9 8 8 7 8 9 11 11 11 12 14
21 18 18 12 18 19 15 15 24 30 32 34 34 37 40 40 40 40 37 34 31 27 24 21 19 16 12 10 8 9 8 7 6 7 7 8 8 10 12 12 11 11 12 16
20 12 17 19 24 21 12 17 28 32 34 34 36 38 39 36 38 37 36 35 33 30 26 22 19 15 11 10 9 9 9 8 7 7 8 9 9 10 9 10 11 12 15 17
19 17 13 15 15 17 17 21 34 40 38 37 37 38 39 39 37 37 36 33 29 24 21 19 17 14 12 10 9 9 8 9 9 8 9 9 9 9 10 10 13 14 14 17
29 29 27 22 22 18 18 24 31 40 43 39 38 39 40 40 40 39 37 34 30 25 21 19 16 14 12 11 10 9 9 9 9 10 9 10 10 9 11 13 13 13 13 15
30 34 32 32 32 24 23 28 35 39 40 39 39 40 39 39 39 37 36 34 31 28 25 21 18 15 12 11 10 9 8 9 10 10 10 10 10 11 12 13 11 13 14 17
17 20 25 25 22 23 28 21 36 38 40 39 39 40 40 40 39 37 36 33 29 25 22 21 17 14 13 11 9 9 8 8 9 9 10 10 11 12 12 11 12 13 14 15
12 12 14 15 20 21 25 25 39 41 41 40 41 41 42 41 39 39 37 34 29 25 21 18 15 13 12 10 8 8 8 7 8 8 9 10 10 11 11 11 12 13 13 15
23 21 17 14 16 22 26 27 36 42 43 42 43 44 42 42 41 39 33 29 29 26 22 17 15 13 11 9 8 8 7 7 7 8 8 8 9 9 10 11 12 13 13 15
28 26 24 20 16 19 27 32 37 44 46 45 47 47 44 42 42 39 36 31 24 22 19 16 15 12 10 8 7 7 7 6 6 7 7 7 7 8 10 12 12 13 14 14
30 30 26 21 15 19 30 37 37 40 43 46 46 45 43 44 40 35 31 29 26 21 17 16 14 11 9 8 7 7 6 6 6 6 7 7 7 9 10 12 13 13 14 14
29 31 27 23 17 23 32 38 39 40 41 42 42 44 41 38 26 35 32 28 22 19 20 17 14 11 10 8 7 5 5 5 6 6 6 6 8 9 10 11 12 13 13 14
27 28 24 18 17 26 33 38 41 42 43 44 45 45 44 33 29 35 32 26 21 21 19 15 14 12 10 7 6 5 5 5 5 5 6 7 8 9 11 12 12 13 13 14
26 24 21 17 19 23 29 36 39 42 44 47 51 48 41 35 37 33 28 24 24 22 19 17 14 12 9 8 6 5 5 5 5 5 6 8 9 10 11 12 13 13 14 14
Wind_Direction
215 184 168 194 180 166 181 189 171 233 204 209 197 184 176 166 157 149 146 147 148 149 148 150 150 149 149 150 155 161 166 169 174 193 243 298 304 309 318 319 325 335 341 342
204 201 192 196 206 187 206 141 270 209 250 236 168 162 167 171 167 161 158 154 151 147 145 146 147 147 148 149 153 162 168 172 174 194 281 307 317 320 321 327 336 342 344 345
245 225 205 305 214 184 183 198 157 192 222 135 161 178 185 178 174 172 170 165 160 157 155 154 154 156 156 156 159 165 168 162 166 314 315 313 321 323 328 339 346 348 346 341
179 63 254 237 228 190 189 203 199 167 183 180 191 199 187 186 183 178 176 171 169 166 162 160 160 160 161 161 162 163 160 167 260 301 314 320 323 336 347 350 350 348 344 338
145 190 281 298 216 182 168 249 196 200 145 148 147 146 168 190 193 187 183 177 173 170 168 165 167 167 169 165 167 169 175 212 289 317 320 324 341 354 360 354 350 345 343 338
154 175 205 222 231 187 108 280 191 174 157 149 144 157 213 189 190 184 182 177 173 170 170 170 168 172 175 172 174 176 186 272 310 322 325 336 356 4 1 351 349 352 346 343
164 223 285 253 225 140 148 237 190 183 173 162 181 195 190 183 185 188 181 177 175 174 174 174 174 177 182 181 186 190 249 293 308 316 322 346 360 4 352 346 355 3 2 356
111 103 252 216 84 160 218 185 195 191 190 176 185 172 174 178 180 179 177 175 178 175 174 176 180 183 188 189 195 233 268 285 295 305 321 336 348 346 343 343 351 360 1 358
177 208 228 213 234 231 265 219 196 195 189 186 176 169 173 175 178 179 179 178 180 181 178 178 183 194 201 200 217 245 265 270 267 283 290 295 313 320 329 330 342 348 346 346
79 262 236 230 233 242 243 227 222 210 199 194 181 176 176 176 177 179 181 182 182 184 183 182 187 195 207 215 225 244 253 247 255 266 251 260 288 307 309 312 324 331 333 330
297 270 279 251 262 262 252 230 216 206 203 195 188 179 181 180 181 183 183 184 186 188 188 189 190 197 209 220 236 247 242 244 256 250 246 254 279 295 293 301 310 317 322 323
197 31 331 303 316 293 249 222 206 201 191 194 196 189 185 183 186 185 184 185 186 190 192 192 193 202 211 219 234 246 243 249 251 245 251 262 276 274 287 300 306 307 317 320
317 335 322 322 319 248 223 214 208 208 201 190 191 192 188 188 188 187 187 189 190 191 193 196 199 201 208 219 234 240 240 248 248 251 261 269 279 280 283 294 299 306 315 320
309 319 311 281 330 342 270 226 210 199 197 196 192 190 191 191 188 190 191 191 192 193 195 199 202 202 205 219 230 232 233 239 254 264 260 267 279 289 297 302 303 311 319 319
288 289 280 292 313 326 321 234 209 198 193 191 195 193 194 192 191 192 192 191 191 195 199 198 204 206 213 222 224 228 234 245 262 265 265 268 282 294 296 297 297 301 308 312
276 263 285 283 278 302 293 234 207 202 196 194 194 196 197 195 193 192 192 194 192 195 198 201 206 210 216 224 225 228 240 258 266 270 272 278 290 296 292 290 294 302 311 315
259 277 289 298 273 289 271 252 227 208 201 200 198 196 194 193 192 191 193 193 198 202 200 204 210 213 221 226 227 230 246 259 269 274 275 283 292 298 292 293 298 305 310 310
256 265 271 274 278 271 288 244 228 216 211 204 199 197 196 195 193 192 192 191 192 194 198 203 212 219 226 227 227 232 247 261 275 276 280 285 298 298 293 297 300 302 305 303
258 263 267 266 265 252 269 243 222 217 210 208 200 199 197 196 195 195 191 191 194 196 196 202 213 220 223 225 228 235 245 262 272 275 281 288 295 299 300 302 301 303 310 306
261 269 267 256 252 248 253 257 237 219 213 207 200 197 195 196 195 194 191 193 200 204 203 205 210 215 219 223 227 236 248 264 271 275 279 286 295 300 302 306 308 311 311 312
342 329 298 291 252 247 240 243 230 218 215 210 205 200 198 194 193 193 188 192 193 197 201 204 210 212 216 218 227 240 254 264 268 275 282 291 298 303 307 313 316 319 320 320
342 331 323 303 278 247 235 236 230 221 213 206 202 201 194 190 188 188 197 201 195 194 196 202 204 210 212 215 230 244 256 265 276 282 286 294 302 310 313 315 321 323 325 324
336 328 323 316 274 247 228 225 225 219 212 207 203 198 192 191 190 190 191 191 198 196 194 198 202 208 210 219 236 250 256 266 276 283 288 296 306 313 313 317 323 325 327 329
331 331 324 316 279 237 222 216 215 213 211 205 201 194 193 188 185 198 198 188 185 188 194 200 201 200 207 219 233 244 252 264 274 286 293 303 309 310 314 320 324 325 329 330
324 328 328 323 294 235 219 210 206 205 202 197 190 190 192 189 206 192 189 187 178 191 198 192 191 199 209 214 223 232 244 259 273 283 291 303 307 310 316 321 322 325 328 328
319 325 324 310 262 228 214 206 203 197 194 186 184 188 187 189 195 184 172 182 184 194 190 187 189 199 205 208 207 221 235 254 265 278 291 304 308 314 319 322 322 324 326 327
310 311 312 290 254 232 215 206 201 195 192 188 187 183 182 181 178 178 178 174 189 186 183 183 186 191 195 196 199 211 232 247 263 282 298 307 313 316 319 319 321 322 323 325